Location: Krakow
(50.0212°N, 19.9423°E)
Time: 20:35:42
(UTC+02:00)

UWE-3 - Pass Details

Date: 04 May 2024
Orbit: 569 x 652 km, 97.8° (Epoch: 19 May)

Event Time Altitude Azimuth Distance (km) Brightness Sun altitude
Rises 04:16:02 0° 5° (N) 2,905 ? -8.3°
Reaches altitude 10° 04:18:23 10° 355° (N) 2,009 ? -8.0°
Maximum altitude 04:22:14 31° 294° (WNW) 1,123 ? -7.5°
Drops below altitude 10° 04:26:07 10° 233° (SW) 2,036 ? -7.0°
Enters shadow 04:26:26 - 231° (SW) 2,152 ? -6.9°
